星链-11370 (STARLINK-11370)

导读

STARLINK-11370是美国太空探索技术公司(SpaceX)星链星座的一员,于2024年10月18日发射升空,属于星链低轨通信网络的拓展部署卫星。它运行在近地轨道,采用星链成熟的卫星通信技术,旨在补充全球高速低延迟互联网覆盖,服务偏远地区接入,助力SpaceX持续推进全球星链组网建设,支撑消费级宽带与专业领域通信需求。

基本信息
目录编号:
61584
目录名称:
STARLINK-11370
国际标识:
2024-187L
轨道中心:
EARTH
卫星名称:
星链-11370
卫星全名:
星链-11370 (STARLINK-11370)
卫星状态:
在轨 (已飞行600 天)
发射日期:
2024-10-18 UTC
国别 :
美国 (US)
星等 :
--
轨道信息
数据来源 国际轨道数据
星历时间: 2026-06-09T17:52:29+0800
1天前
查看轨道信息
半长轴: 6737.829km
偏心率: 0.000106
轨道倾角: 53.159°
近地点辐角 78.982°
升交点赤经 204.290°
平近点角 281.131°
近地点: 358.977km
远地点: 360.407km
周期: 91.736分钟
每日圈数: 15.697222
详细信息
固有亮度:
5
最大亮度:
2.5
卫星平台:
Starlink V1.0
覆盖范围:
全球
运营商:
太空探索技术公司
运营商所在国:
美国
制造商(研发单位):
太空探索技术公司
制造商所在国:
美国
使用方式:
暂无
卫星简介
Starlink 计划是 SpaceX 推出的全球卫星互联网项目,通过发射低轨道卫星,为全球尤其是偏远地区提供高速、低延迟的互联网服务。自 2019 年起,Starlink 已部署数千颗卫星,旨在缩小全球数字鸿沟,推动互联网普及。该项目还为军事、航空等行业提供通信支持,带来广泛经济效益。
2D轨道图
3D轨道图
轨道高度分析图
轨道倾角分析图
轨道综合分析图
查看轨道综合分析图